International Falls, MN

5:26 PM CDT on May 22, 2018 (GMT -0500)
Falls International

Weather History for KINL - January, 2013

Change the Weather History Date:

Thursday, January 17, 2013

  Actual Average Record
Temperature  
Mean Temperature -9 °F 4 °F  
Max Temperature 2 °F 15 °F 38 °F (1919)
Min Temperature -20 °F -7 °F -45 °F (1982)
Degree Days  
Heating Degree Days 74 61  
Month to date heating degree days 905 1033  
Since 1 July heating degree days 5036 5208  
Cooling Degree Days 0 0  
Month to date cooling degree days 0 0  
Year to date cooling degree days 0 0  
Moisture  
Dew Point -16 °F    
Average Humidity 72    
Maximum Humidity 81    
Minimum Humidity 62    
Precipitation  
Precipitation T in 0.02 in 0.72 in (1897)
Month to date precipitation 1.04 0.38  
Year to date precipitation 1.04 0.38  
Snow  
Snow 0.10 in 0.50 in 6.60 in (1996)
Month to date snowfall 6.4 8.9  
Since 1 July snowfall 31.7 39.9  
Snow Depth 10.00 in    
Sea Level Pressure  
Sea Level Pressure 30.38 in    
Wind  
Wind Speed 5 mph (West)    
Max Wind Speed 14 mph    
Max Gust Speed 17 mph    
Visibility 10 miles    
Events      
T = Trace of Precipitation, MM = Missing Value Source: NWS Daily Summary

Daily Weather History Graph

Daily Weather History Graph

Search for Another Location

Airport or City:

Astronomy

Jan. 17, 2013 Rise Set
Actual Time 7:58 AM CST 4:49 PM CST
Civil Twilight 7:23 AM CST 5:24 PM CST
Nautical Twilight 6:44 AM CST 6:03 PM CST
Astronomical Twilight 6:07 AM CST 6:40 PM CST
Moon 10:30 AM CST (1/17) No Moon Set
Length of Visible Light 10h 00m
Length of Day
8h 50m
Waxing Crescent, 38% of the Moon is Illuminated
Jan 17
Waxing Crescent
Jan 18
First Quarter
Jan 26
Full
Feb 3
Last Quarter
Feb 10
New

Hourly Weather History & Observations

Time (CST) Temp. Windchill Dew Point Humidity Pressure Visibility Wind Dir Wind Speed Gust Speed Precip Events Conditions
12:55 AM -14.1 °F -28.3 °F -20.0 °F 75% 30.32 in 10.0 mi West 5.8 mph - N/A   Clear
1:55 AM -15.0 °F -29.3 °F -20.9 °F 75% 30.34 in 10.0 mi West 5.8 mph - N/A   Overcast
2:55 AM -15.0 °F -31.0 °F -22.0 °F 71% 30.35 in 10.0 mi West 6.9 mph - N/A   Overcast
3:55 AM -14.1 °F -29.9 °F -23.1 °F 64% 30.35 in 10.0 mi West 6.9 mph - N/A   Overcast
4:55 AM -13.0 °F -27.0 °F -22.0 °F 64% 30.36 in 10.0 mi West 5.8 mph - N/A   Overcast
5:55 AM -11.9 °F - -20.9 °F 64% 30.36 in 10.0 mi Calm Calm - N/A   Overcast
6:55 AM -11.0 °F -20.4 °F -18.9 °F 68% 30.36 in 10.0 mi West 3.5 mph - N/A   Overcast
7:55 AM -9.9 °F -21.5 °F -18.0 °F 68% 30.38 in 10.0 mi WSW 4.6 mph - N/A   Overcast
8:55 AM -9.0 °F -20.4 °F -16.1 °F 71% 30.40 in 10.0 mi WSW 4.6 mph - N/A   Overcast
9:55 AM -7.1 °F -18.1 °F -14.1 °F 72% 30.43 in 9.0 mi West 4.6 mph - N/A   Overcast
10:55 AM -4.0 °F -19.0 °F -11.9 °F 69% 30.44 in 7.0 mi West 8.1 mph - N/A   Overcast
11:55 AM -2.0 °F -16.6 °F -11.0 °F 66% 30.42 in 8.0 mi West 8.1 mph - N/A   Mostly Cloudy
12:55 PM -0.0 °F -16.3 °F -9.9 °F 63% 30.40 in 10.0 mi WNW 10.4 mph - N/A   Scattered Clouds
1:55 PM 1.0 °F -15.8 °F -9.0 °F 63% 30.40 in 10.0 mi WSW 11.5 mph - N/A   Scattered Clouds
2:55 PM 1.9 °F -11.8 °F -9.0 °F 60% 30.40 in 10.0 mi West 8.1 mph - N/A   Scattered Clouds
3:55 PM 1.0 °F -15.8 °F -9.0 °F 63% 30.42 in 10.0 mi West 11.5 mph - N/A   Scattered Clouds
4:55 PM -2.0 °F -16.6 °F -11.9 °F 63% 30.41 in 10.0 mi WNW 8.1 mph - N/A   Clear
5:55 PM -4.0 °F -12.4 °F -11.9 °F 69% 30.41 in 10.0 mi West 3.5 mph - N/A   Clear
6:55 PM -11.9 °F - -16.1 °F 82% 30.40 in 10.0 mi Calm Calm - N/A   Clear
7:55 PM -14.1 °F - -20.0 °F 75% 30.40 in 10.0 mi Calm Calm - N/A   Clear
8:55 PM -15.0 °F - -20.9 °F 75% 30.39 in 10.0 mi Calm Calm - N/A   Clear
9:55 PM -14.1 °F - -18.0 °F 82% 30.36 in 10.0 mi Calm Calm - N/A   Clear
10:55 PM -18.9 °F - -23.1 °F 81% 30.35 in 10.0 mi Calm Calm - N/A   Clear
11:55 PM -13.0 °F - -17.0 °F 82% 30.32 in 10.0 mi Calm Calm - N/A   Clear